Location: Leeds
(37.2390°N, 113.3580°W)
Time: 06:20:04
(UTC-07:00)

Daily predictions for brighter satellites

Satellite Brightness Start Highest point End
(mag) Time Altitude Azimuth Time Altitude Azimuth Time Altitude Azimuth
CZ-4 R/B 2.0 17:41:07 10° SE 17:44:32 31° ENE 17:47:56 10° N
SL-27 R/B 3.5 17:42:18 10° NNE 17:45:01 23° ENE 17:47:46 10° ESE
Cosmos 1814 Rocket 4.0 17:42:40 10° NNW 17:48:02 73° ENE 17:53:22 10° SSE
COSMOS 2455 3.7 17:42:17 10° SW 17:48:07 52° WNW 17:54:00 10° NNE
Cosmos 1340 4.5 17:47:10 10° SW 17:50:36 33° WNW 17:54:03 10° N
IRAS Rocket 4.3 17:47:40 10° SSE 17:53:13 86° WSW 17:58:46 10° NNW
Cosmos 1862 Rocket 4.1 17:48:57 10° SSW 17:53:19 65° W 17:57:46 10° N
Cosmos 540 Rocket 4.3 17:49:00 10° N 17:53:23 27° ENE 17:57:43 10° ESE
CSL-04 Rocket 3.6 17:48:52 10° SSE 17:54:08 80° ENE 17:59:30 10° N
Cosmos 1437 4.1 17:52:04 10° SSW 17:55:04 41° WNW 17:58:06 10° N
Cosmos 1503 Rocket 4.4 17:52:14 10° S 17:57:10 42° ESE 18:02:05 10° NNE
Ariane Rocket 3.0 17:54:34 10° SSE 17:59:39 79° ENE 18:04:44 10° N
Cosmos 2233 Rocket 4.1 17:53:39 10° S 17:59:56 90° E 18:06:11 10° N
ERS-2 3.2 17:57:50 10° SE 18:00:51 24° ENE 18:03:53 10° NNE
Cosmos 2082 Rocket 2.8 17:56:11 10° N 18:01:16 33° ENE 18:06:17 10° ESE
Okean 1-7 3.6 17:59:43 10° SSE 18:03:45 37° E 18:07:49 10° NNE
Sich 1 Rocket 3.8 18:00:28 10° N 18:04:47 50° E 18:09:07 10° SSE
USA 234 3.8 17:58:57 10° ENE 18:05:04 40° SE 18:11:07 10° SSW
AQUARIUS 4.1 18:02:09 10° SSE 18:06:37 82° ENE 18:11:08 10° N
Cosmos 841 Rocket 3.5 18:01:26 10° NNW 18:06:43 72° ENE 18:11:56 10° SSE
Cosmos 1782 3.0 18:04:28 10° S 18:08:21 52° E 18:12:15 10° NNE
Cosmos 405 Rocket 3.8 18:05:58 10° SE 18:09:02 23° E 18:11:48 11° NE
Meteor 1-20 Rocket 4.1 18:04:09 10° N 18:09:40 66° E 18:15:04 10° SSE
ALOS 3.3 18:06:39 10° ESE 18:10:18 23° ENE 18:13:58 10° NNE
Meteor 1-25 Rocket 4.2 18:06:59 10° N 18:12:50 78° E 18:18:36 10° SSE
SMAP 3.3 18:12:47 10° S 18:17:25 74° WSW 18:22:05 10° NNW
Cosmos 1633 2.6 18:17:43 10° N 18:21:21 58° E 18:24:57 10° SSE
BREEZE-M DEB (TANK) 4.0 18:22:49 10° N 18:24:07 15° NNE 18:24:07 15° NNE
Cosmos 1782 Rocket 3.5 18:23:12 10° N 18:27:31 63° E 18:31:50 10° SSE
USA 116 4.1 18:24:26 10° N 18:28:44 68° WNW 18:32:29 10° SSW
YAOGAN 1 2.5 18:26:58 10° SSE 18:31:17 83° ENE 18:35:38 10° N
COSMO-SKYMED 1 2.5 18:29:39 10° NNE 18:33:59 72° E 18:38:18 10° S
Meteor 1-27 Rocket 4.1 18:30:35 10° SSE 18:36:11 47° E 18:41:50 10° NNE
Cosmos 1354 Rocket 4.1 18:31:07 10° SSW 18:36:24 82° WNW 18:41:42 10° NNE
FENGYUN 3A 3.9 18:32:52 10° SE 18:38:00 46° ENE 18:43:09 10° N
CZ-4C R/B 3.5 18:32:23 10° NNW 18:38:53 35° NE 18:43:22 20° E
Tiangong 1 1.9 18:37:41 10° SSW 18:39:51 27° SSE 18:39:51 27° SSE
Cosmos 1891 Rocket 4.4 18:37:01 10° S 18:43:10 72° E 18:49:13 10° N
SPOT 3 Rocket 3.5 18:38:07 10° SSE 18:43:14 60° ENE 18:48:22 10° N
Meteor 1-10 Rocket 4.3 18:40:24 10° S 18:46:04 84° W 18:51:52 10° N
USA 229 DEB 4.2 18:44:22 10° S 18:50:26 37° ESE 18:52:44 29° ENE
USA 229 4.2 18:44:30 10° S 18:50:33 37° ESE 18:52:47 29° ENE
Cosmos 2221 Rocket 4.0 18:48:47 10° SSW 18:53:08 62° W 18:57:30 10° N
Cosmos 1833 Rocket 2.6 18:49:16 10° NNW 18:54:55 87° WSW 19:00:33 10° SSE
Cosmos 2369 Rocket 3.7 18:50:52 10° SSE 18:53:19 19° SE 18:53:19 19° SE
OAO 3 Rocket 3.7 18:53:07 10° WSW 18:57:51 48° SSE 18:59:21 36° ESE
Cosmos 2297 4.4 18:54:17 10° SW 18:59:53 55° WNW 19:05:31 10° NNE
Nadezhda 4 Rocket 4.0 18:55:04 10° N 19:01:03 55° E 19:07:01 10° SSE
Cosmos 2278 Rocket 4.4 18:59:20 10° WSW 19:03:38 22° NW 19:07:58 10° N
Cosmos 2034 Rocket 4.0 18:59:01 10° S 19:05:24 88° W 19:11:47 10° N
ISS -1.0 19:05:01 10° S 19:05:02 10° S 19:05:02 10° S
GPS 2-05 Rocket1 3.4 19:05:03 10° WSW 19:07:38 47° SSW 19:07:38 47° SSW
NOAA 12 4.1 19:04:35 10° SSE 19:09:54 87° WSW 19:15:15 10° NNW
Cosmos 1441 Rocket 3.6 19:06:20 10° SSW 19:10:16 65° W 19:12:08 29° N
Meteor 2-20 4.3 19:05:47 10° N 19:11:52 85° E 19:17:56 10° S
Okean 2 Rocket 3.6 19:08:18 10° NNW 19:12:46 62° W 19:17:13 10° S
Cosmos 405 3.2 19:10:13 10° NNW 19:13:48 69° W 19:17:21 10° S
Timation 2 Rocket 4.1 19:07:42 10° NNW 19:14:19 54° ENE 19:16:18 40° ESE
Cosmos 44 Rocket 3.2 19:09:49 10° NNW 19:14:44 83° ENE 19:16:24 43° SE
Thor Agena Rocket 3.4 19:17:06 59° E 19:17:17 60° ESE 19:22:21 10° S
Meteor 1-11 Rocket 3.7 19:13:06 10° N 19:18:57 89° W 19:24:39 10° S
Cosmos 1092 Rocket 4.0 19:13:12 10° N 19:19:13 53° E 19:25:14 10° SSE
CZ-4 R/B 4.4 19:17:17 10° SW 19:19:38 15° W 19:21:58 10° WNW
Cosmos 292 Rocket 4.0 19:16:34 10° NNW 19:21:18 69° WSW 19:26:01 10° S
Cosmos 968 Rocket 4.1 19:32:49 10° SSW 19:37:51 54° WNW 19:39:43 36° NNW
Cosmos 44 4.0 19:33:27 10° NW 19:38:05 52° WSW 19:39:53 34° S
Cosmos 2082 Rocket 3.9 19:40:17 10° NW 19:45:15 32° WSW 19:50:10 10° SSW
ALOS 4.0 19:43:24 10° SSW 19:47:32 31° W 19:51:42 10° NNW
USA 234 3.7 19:46:03 39° NNE 19:48:07 54° NW 19:54:25 10° WSW
CZ-3A R/B 4.2 19:46:36 10° NW 19:56:03 51° WSW 19:59:22 24° S
CZ-4C R/B 3.4 20:20:35 10° NW 20:27:48 56° WSW 20:28:42 53° SW
Cosmos 2369 Rocket 4.3 20:33:19 10° SW 20:35:11 21° SW 20:35:11 21° SW
